EW9154 Weather Reports


Display with metric or nautical units.
time (UTC)temp
F
wind
direction
speed
MPH
gust
MPH
rain 1hr
in
rain 24hr
in
rain mn
in
humidity
%
barometer
mb
20260510032342 51 244 0.0 0.0 0.00 0.00 0.00 43 1028.3
20260510031843 51 244 0.0 0.0 0.00 0.00 0.00 43 1028.2
20260510031317 51 244 0.0 0.0 0.00 0.00 0.00 43 1028.2
20260510030816 51 244 0.0 0.0 0.00 0.00 0.00 43 1028.1
20260510030558 51 244 0.0 0.0 0.00 0.00 0.00 43 1028.0
20260510030016 52 244 0.0 0.0 0.00 0.00 0.00 42 1027.9
20260510025242 52 244 0.0 0.0 0.00 0.00 0.00 42 1027.9
20260510024731 52 211 0.0 0.0 0.00 0.00 0.00 42 1027.9
20260510024229 52 213 0.0 0.0 0.00 0.00 0.00 41 1027.8
20260510023726 52 213 0.0 0.0 0.00 0.00 0.00 41 1027.6
20260510023223 53 213 0.0 0.0 0.00 0.00 0.00 40 1027.5
20260510022720 53 212 0.0 0.0 0.00 0.00 0.00 40 1027.3
20260510022220 53 212 0.0 0.0 0.00 0.00 0.00 40 1027.2
20260510021707 53 212 0.0 0.0 0.00 0.00 0.00 39 1027.0
20260510021434 53 212 0.0 0.0 0.00 0.00 0.00 39 1026.9
20260510020701 53 212 0.0 0.0 0.00 0.00 0.00 38 1026.8
20260510020200 54 212 0.0 0.0 0.00 0.00 0.00 38 1026.7
20260510015655 54 214 0.0 0.0 0.00 0.00 0.00 38 1026.6
20260510015154 54 214 0.0 0.0 0.00 0.00 0.00 38 1026.4
20260510014636 54 214 0.0 0.0 0.00 0.00 0.00 38 1026.3
20260510014141 55 214 0.0 0.0 0.00 0.00 0.00 37 1026.3
20260510013615 55 214 0.0 0.0 0.00 0.00 0.00 36 1026.2
20260510013050 55 214 0.0 0.0 0.00 0.00 0.00 37 1026.1
20260510012537 55 214 0.0 0.0 0.00 0.00 0.00 36 1026.1
20260510012036 56 214 0.0 0.0 0.00 0.00 0.00 36 1026.0
20260510011517 56 213 0.0 0.0 0.00 0.00 0.00 35 1025.9
20260510010940 56 214 0.0 0.0 0.00 0.00 0.00 35 1025.8
20260510010412 56 214 0.0 1.0 0.00 0.00 0.00 34 1025.7
20260510005913 56 213 0.0 1.0 0.00 0.00 0.00 33 1025.6
20260510005353 57 69 0.0 3.0 0.00 0.00 0.00 34 1025.6
20260510005126 57 236 0.0 1.0 0.00 0.00 0.00 33 1025.5
20260510004339 57 248 0.0 3.0 0.00 0.00 0.00 32 1025.4
20260510003838 57 236 0.0 3.0 0.00 0.00 0.00 32 1025.4
20260510003821 58 150 0.0 1.0 0.00 0.00 0.00 31 1025.4
20260510002820 58 320 0.0 0.0 0.00 0.00 0.00 31 1025.3
20260510002253 58 260 0.0 1.0 0.00 0.00 0.00 32 1025.2
20260510001756 58 300 0.0 7.0 0.00 0.00 0.00 32 1025.2
20260510001247 59 270 0.0 7.0 0.00 0.00 0.00 31 1025.1
20260510000750 59 298 0.0 7.0 0.00 0.00 0.00 31 1025.2
20260510000235 59 288 0.0 7.0 0.00 0.00 0.00 30 1025.0
20260510000002 59 232 0.0 5.0 0.00 0.00 0.00 30 1024.9
20260509235215 59 178 0.0 5.0 0.00 0.00 0.00 30 1024.9
20260509235156 59 251 0.0 3.0 0.00 0.00 0.00 30 1024.9
20260509234141 60 243 0.0 4.0 0.00 0.00 0.00 29 1024.8
20260509233602 60 302 0.0 4.0 0.00 0.00 0.00 30 1024.8
20260509233312 60 304 0.0 5.0 0.00 0.00 0.00 30 1024.5
20260509232524 60 232 0.0 5.0 0.00 0.00 0.00 29 1024.5
20260509232023 61 228 0.0 4.0 0.00 0.00 0.00 28 1024.5
20260509231452 62 17 0.0 2.0 0.00 0.00 0.00 28 1024.5
20260509230945 62 5 0.0 2.0 0.00 0.00 0.00 27 1024.4
20260509230443 63 30 0.0 2.0 0.00 0.00 0.00 28 1024.3
20260509225940 63 313 0.0 5.0 0.00 0.00 0.00 28 1024.3
20260509225441 64 315 0.0 5.0 0.00 0.00 0.00 27 1024.2
20260509224939 64 223 0.0 0.0 0.00 0.00 0.00 27 1024.1
20260509224708 64 15 0.0 0.0 0.00 0.00 0.00 28 1024.1
20260509223939 64 267 0.0 0.0 0.00 0.00 0.00 26 1023.9
20260509223318 63 350 0.0 4.0 0.00 0.00 0.00 27 1023.9
20260509222820 64 9 0.0 4.0 0.00 0.00 0.00 26 1023.9
20260509222253 64 0 0.0 4.0 0.00 0.00 0.00 27 1024.0
20260509221735 65 338 0.0 2.0 0.00 0.00 0.00 25 1023.9
20260509221234 65 317 0.0 1.0 0.00 0.00 0.00 26 1023.8
20260509220733 65 181 0.0 1.0 0.00 0.00 0.00 25 1023.8
20260509220230 65 261 0.0 1.0 0.00 0.00 0.00 26 1023.7
20260509215727 65 157 0.0 7.0 0.00 0.00 0.00 27 1023.8
20260509215227 65 243 0.0 7.0 0.00 0.00 0.00 26 1023.7
20260509214723 65 65 0.0 1.0 0.00 0.00 0.00 25 1023.7
20260509214223 66 351 0.0 0.0 0.00 0.00 0.00 27 1023.8
20260509213722 66 307 0.0 1.0 0.00 0.00 0.00 26 1023.8
20260509213458 66 65 0.0 0.0 0.00 0.00 0.00 27 1023.7
20260509212658 65 0 0.0 5.0 0.00 0.00 0.00 26 1023.6
20260509212130 65 15 0.0 5.0 0.00 0.00 0.00 25 1023.6
20260509211629 66 335 0.0 3.0 0.00 0.00 0.00 27 1023.5
20260509211104 66 308 0.0 2.0 0.00 0.00 0.00 26 1023.6
20260509210817 65 241 0.0 3.0 0.00 0.00 0.00 26 1023.5
20260509210319 65 263 0.0 3.0 0.00 0.00 0.00 26 1023.4
20260509205547 65 105 0.0 2.0 0.00 0.00 0.00 26 1023.5
20260509205018 65 20 0.0 3.0 0.00 0.00 0.00 27 1023.4
20260509204515 65 233 0.0 6.0 0.00 0.00 0.00 26 1023.5
20260509204015 65 338 0.0 6.0 0.00 0.00 0.00 27 1023.4
20260509203446 66 273 0.0 3.0 0.00 0.00 0.00 27 1023.4
20260509202932 65 311 0.0 3.0 0.00 0.00 0.00 26 1023.4
20260509202428 65 306 0.0 2.0 0.00 0.00 0.00 27 1023.4
20260509201905 66 307 0.0 4.0 0.00 0.00 0.00 27 1023.3
20260509201336 66 55 0.0 4.0 0.00 0.00 0.00 29 1023.2
20260509200832 66 296 0.0 0.0 0.00 0.00 0.00 30 1023.2
20260509200810 65 197 0.0 1.0 0.00 0.00 0.00 30 1023.2
20260509195808 65 92 0.0 1.0 0.00 0.00 0.00 30 1023.1
20260509195306 65 40 0.0 6.0 0.00 0.00 0.00 28 1023.2
20260509194805 65 292 0.0 6.0 0.00 0.00 0.00 26 1023.0
20260509194532 65 306 0.0 3.0 0.00 0.00 0.00 29 1023.1
20260509193759 64 346 0.0 3.0 0.00 0.00 0.00 28 1022.9
20260509193233 65 32 0.0 3.0 0.00 0.00 0.00 29 1022.9
20260509192733 66 87 0.0 1.0 0.00 0.00 0.00 27 1022.9
20260509192204 65 287 0.0 10.0 0.00 0.00 0.00 27 1022.9
20260509191702 65 250 0.0 10.0 0.00 0.00 0.00 28 1022.8
20260509191134 65 254 0.0 2.0 0.00 0.00 0.00 30 1022.7
20260509190630 65 13 0.0 1.0 0.00 0.00 0.00 32 1022.9
20260509190104 65 282 0.0 4.0 0.00 0.00 0.00 31 1022.8
20260509185829 64 333 0.0 4.0 0.00 0.00 0.00 32 1022.7
20260509185031 64 336 0.0 4.0 0.00 0.00 0.00 34 1022.5
20260509184504 65 46 0.0 8.0 0.00 0.00 0.00 31 1022.5
20260509183936 64 24 0.0 8.0 0.00 0.00 0.00 33 1022.5
20260509183434 65 329 0.0 1.0 0.00 0.00 0.00 31 1022.5
20260509183149 65 301 0.0 1.0 0.00 0.00 0.00 30 1022.5
20260509182419 65 217 0.0 2.0 0.00 0.00 0.00 31 1022.4
20260509181914 64 252 0.0 2.0 0.00 0.00 0.00 31 1022.4
20260509181414 64 108 0.0 6.0 0.00 0.00 0.00 34 1022.2
20260509180908 64 81 0.0 6.0 0.00 0.00 0.00 33 1022.2
20260509180406 63 316 0.0 1.0 0.00 0.00 0.00 37 1022.1
20260509175853 63 340 0.0 8.0 0.00 0.00 0.00 37 1022.1
20260509175353 63 0 0.0 8.0 0.00 0.00 0.00 35 1022.1
20260509175100 63 325 0.0 5.0 0.00 0.00 0.00 37 1022.0
20260509174329 62 300 0.0 5.0 0.00 0.00 0.00 35 1022.1
20260509173827 63 43 0.0 2.0 0.00 0.00 0.00 34 1021.9
20260509173326 63 275 0.0 6.0 0.00 0.00 0.00 34 1021.9
20260509172827 63 326 0.0 1.0 0.00 0.00 0.00 35 1021.9
20260509172307 62 240 0.0 10.0 0.00 0.00 0.00 35 1021.9
20260509171738 63 254 0.0 1.0 0.00 0.00 0.00 35 1021.8
20260509171236 62 279 0.0 8.0 0.00 0.00 0.00 36 1021.7
20260509170708 62 19 0.0 11.0 0.00 0.00 0.00 35 1021.8
20260509170441 62 351 0.0 1.0 0.00 0.00 0.00 35 1021.8
20260509165648 62 256 0.0 7.0 0.00 0.00 0.00 33 1021.8
20260509165151 63 245 0.0 3.0 0.00 0.00 0.00 34 1021.7
20260509164622 62 0 0.0 3.0 0.00 0.00 0.00 33 1021.7
20260509164120 63 244 0.0 1.0 0.00 0.00 0.00 34 1021.6
20260509163553 62 24 0.0 3.0 0.00 0.00 0.00 35 1021.6
20260509163322 61 210 0.0 3.0 0.00 0.00 0.00 36 1021.6
20260509162533 61 319 0.0 5.0 0.00 0.00 0.00 37 1021.4
20260509162037 61 321 0.0 5.0 0.00 0.00 0.00 35 1021.3
20260509161740 60 277 0.0 2.0 0.00 0.00 0.00 36 1021.3
20260509161005 60 292 0.0 1.0 0.00 0.00 0.00 36 1021.3
20260509160441 60 329 0.0 4.0 0.00 0.00 0.00 39 1021.2
20260509155915 60 285 0.0 4.0 0.00 0.00 0.00 40 1021.2
20260509155354 60 277 0.0 3.0 0.00 0.00 0.00 42 1021.2
20260509154857 60 266 0.0 3.0 0.00 0.00 0.00 41 1021.1
20260509154328 60 306 0.0 2.0 0.00 0.00 0.00 41 1021.1
20260509153827 59 269 0.0 2.0 0.00 0.00 0.00 42 1020.9
20260509153259 59 315 0.0 0.0 0.00 0.00 0.00 43 1021.0
20260509153030 59 332 0.0 0.0 0.00 0.00 0.00 43 1020.8
20260509152503 59 290 0.0 1.0 0.00 0.00 0.00 48 1020.8
20260509151726 58 327 0.0 1.0 0.00 0.00 0.00 47 1020.8
20260509151456 58 351 0.0 1.0 0.00 0.00 0.00 50 1020.7
20260509150953 57 326 0.0 2.0 0.00 0.00 0.00 48 1020.6
20260509150157 57 10 0.0 2.0 0.00 0.00 0.00 50 1020.5
20260509145638 56 29 0.0 0.0 0.00 0.00 0.00 52 1020.5
20260509145132 56 314 0.0 1.0 0.00 0.00 0.00 54 1020.5
20260509144637 56 10 0.0 1.0 0.00 0.00 0.00 55 1020.4
20260509144110 55 329 0.0 2.0 0.00 0.00 0.00 57 1020.4
20260509143546 55 318 0.0 2.0 0.00 0.00 0.00 57 1020.3
20260509143040 55 315 0.0 1.0 0.00 0.00 0.00 59 1020.3
20260509142540 54 250 0.0 0.0 0.00 0.00 0.00 60 1020.1
20260509142030 54 304 0.0 0.0 0.00 0.00 0.00 62 1020.1
20260509141528 54 346 0.0 0.0 0.00 0.00 0.00 63 1020.0
20260509141014 54 277 0.0 0.0 0.00 0.00 0.00 63 1019.7
20260509140452 54 273 0.0 3.0 0.00 0.00 0.00 64 1019.6
20260509135957 53 274 0.0 3.0 0.00 0.00 0.00 66 1019.5
20260509135725 53 41 0.0 3.0 0.00 0.00 0.00 68 1019.4
20260509134955 53 273 0.0 3.0 0.00 0.00 0.00 70 1019.4
20260509134431 52 0 0.0 1.0 0.00 0.00 0.00 72 1019.4
20260509133904 52 26 0.0 1.0 0.00 0.00 0.00 73 1019.2
20260509133407 51 269 0.0 1.0 0.00 0.00 0.00 72 1019.2
20260509132858 52 29 0.0 1.0 0.00 0.00 0.00 71 1019.2
20260509132355 52 281 0.0 0.0 0.00 0.00 0.00 72 1019.1
20260509131853 52 274 0.0 0.0 0.00 0.00 0.00 73 1019.0
20260509131357 52 161 0.0 0.0 0.00 0.00 0.00 73 1018.9
20260509130833 52 252 0.0 2.0 0.00 0.00 0.00 74 1018.8
20260509130606 52 13 0.0 2.0 0.00 0.00 0.00 74 1018.7
20260509125810 52 234 0.0 2.0 0.00 0.00 0.00 74 1018.7
20260509125245 52 256 0.0 2.0 0.00 0.00 0.00 75 1018.6
20260509124738 52 271 0.0 2.0 0.00 0.00 0.00 75 1018.4
20260509124237 52 230 0.0 0.0 0.00 0.00 0.00 75 1018.4
20260509123737 52 231 0.0 1.0 0.00 0.00 0.00 75 1018.3
20260509123235 52 230 0.0 1.0 0.00 0.00 0.00 75 1018.1
20260509122733 52 265 0.0 0.0 0.00 0.00 0.00 75 1018.1
20260509122234 52 274 0.0 0.0 0.00 0.00 0.00 75 1018.0
20260509121935 52 272 0.0 8.0 0.00 0.00 0.00 75 1017.9
20260509121142 52 271 0.0 8.0 0.00 0.00 0.00 74 1017.7
20260509120617 53 225 0.0 2.0 0.00 0.00 0.00 74 1017.8
20260509120101 52 311 0.0 2.0 0.00 0.00 0.00 73 1017.6
20260509115537 52 257 0.0 3.0 0.00 0.00 0.00 72 1017.4
20260509115040 52 271 0.0 6.0 0.00 0.00 0.00 70 1017.3
20260509114529 52 259 0.0 6.0 0.00 0.00 0.00 69 1017.3
20260509114029 52 250 0.0 0.0 0.00 0.00 0.00 69 1017.3
20260509113530 52 235 0.0 0.0 0.00 0.00 0.00 69 1017.2
20260509113010 52 235 0.0 0.0 0.00 0.00 0.00 69 1017.0
20260509112448 52 235 0.0 0.0 0.00 0.00 0.00 69 1017.0
20260509111924 52 235 0.0 0.0 0.00 0.00 0.00 70 1016.9
20260509111357 52 198 0.0 0.0 0.00 0.00 0.00 70 1016.8
20260509110854 52 198 0.0 0.0 0.00 0.00 0.00 70 1016.8
20260509110623 52 198 0.0 0.0 0.00 0.00 0.00 69 1016.6
20260509105824 52 196 0.0 0.0 0.00 0.00 0.00 69 1016.7
20260509105259 52 196 0.0 0.0 0.00 0.00 0.00 69 1016.6
20260509105031 52 196 0.0 0.0 0.00 0.00 0.00 70 1016.5
20260509104244 52 196 0.0 0.0 0.00 0.00 0.00 69 1016.6
20260509103747 52 196 0.0 0.0 0.00 0.00 0.00 67 1016.5
20260509103222 52 196 0.0 0.0 0.00 0.00 0.00 64 1016.1
20260509103217 52 196 0.0 0.0 0.00 0.00 0.00 65 1016.5
20260509102149 52 196 0.0 0.0 0.00 0.00 0.00 62 1015.9
20260509101621 52 196 0.0 0.0 0.00 0.00 0.00 62 1016.3
20260509101110 52 196 0.0 0.0 0.00 0.00 0.00 62 1016.3
20260509100606 52 196 0.0 0.0 0.00 0.00 0.00 63 1016.3
20260509100040 52 196 0.0 0.0 0.00 0.00 0.00 62 1016.2
20260509095813 52 196 0.0 0.0 0.00 0.00 0.00 60 1016.8
20260509095538 52 196 0.0 0.0 0.00 0.00 0.00 61 1016.6
20260509094522 52 196 0.0 0.0 0.00 0.00 0.00 60 1016.8
20260509094024 52 196 0.0 0.0 0.00 0.00 0.00 59 1016.8
20260509093745 52 196 0.0 0.0 0.00 0.00 0.00 59 1016.7
20260509093012 52 196 0.0 0.0 0.00 0.00 0.00 58 1016.7
20260509092714 52 196 0.0 0.0 0.00 0.00 0.00 56 1016.7
20260509091942 52 196 0.0 0.0 0.00 0.00 0.00 56 1016.5
20260509091416 51 196 0.0 0.0 0.00 0.00 0.00 55 1016.6
20260509090920 51 196 0.0 0.0 0.00 0.00 0.00 54 1016.5
20260509090415 51 196 0.0 0.0 0.00 0.00 0.00 54 1016.4
20260509085913 51 196 0.0 0.0 0.00 0.00 0.00 53 1016.3
20260509085348 51 196 0.0 0.0 0.00 0.00 0.00 53 1016.1
20260509084822 52 197 0.0 0.0 0.00 0.00 0.00 52 1016.4
20260509084552 52 197 0.0 0.0 0.00 0.00 0.00 51 1016.2
20260509083820 52 196 0.0 0.0 0.00 0.00 0.00 51 1016.2
20260509083324 52 196 0.0 1.0 0.00 0.00 0.00 51 1016.1
20260509082755 52 196 0.0 1.0 0.00 0.00 0.00 52 1016.2
20260509082232 52 229 0.0 1.0 0.00 0.00 0.00 49 1015.7
20260509081704 52 223 0.0 3.0 0.00 0.00 0.00 49 1015.3
20260509081140 52 212 0.0 3.0 0.00 0.00 0.00 49 1015.3
20260509080610 52 221 0.0 1.0 0.00 0.00 0.00 48 1015.2
20260509080055 52 227 0.0 0.0 0.00 0.00 0.00 48 1015.2
20260509075554 52 220 0.0 0.0 0.00 0.00 0.00 47 1015.3
20260509075042 53 225 0.0 0.0 0.00 0.00 0.00 47 1015.2
20260509074540 53 228 0.0 0.0 0.00 0.00 0.00 46 1015.0
20260509074022 53 214 0.0 0.0 0.00 0.00 0.00 45 1014.9
20260509073520 53 214 0.0 0.0 0.00 0.00 0.00 45 1015.0
20260509073255 53 214 0.0 0.0 0.00 0.00 0.00 45 1015.0
20260509072455 53 214 0.0 0.0 0.00 0.00 0.00 45 1015.2
20260509071954 53 214 0.0 0.0 0.00 0.00 0.00 45 1015.2
20260509071720 53 214 0.0 0.0 0.00 0.00 0.00 45 1015.3
20260509070946 53 214 0.0 1.0 0.00 0.00 0.00 45 1015.5
20260509070420 53 214 0.0 2.0 0.00 0.00 0.00 44 1015.5
20260509065911 53 214 0.0 2.0 0.00 0.00 0.00 44 1015.4
20260509065344 53 189 0.0 0.0 0.00 0.00 0.00 44 1015.5
20260509064841 53 189 0.0 0.0 0.00 0.00 0.00 44 1015.5
20260509064610 53 189 0.0 0.0 0.00 0.00 0.00 44 1015.6
20260509064106 53 189 0.0 0.0 0.00 0.00 0.00 44 1015.7
20260509063948 53 189 0.0 1.0 0.00 0.00 0.00 44 1015.8
20260509062817 53 176 0.0 0.0 0.00 0.00 0.00 44 1015.9
20260509062316 53 159 0.0 0.0 0.00 0.00 0.00 44 1015.8
20260509061809 54 159 0.0 0.0 0.00 0.00 0.00 43 1015.8
20260509061306 54 159 0.0 0.0 0.00 0.00 0.00 43 1015.9
20260509060803 54 159 0.0 0.0 0.00 0.00 0.00 42 1015.9
20260509060301 54 159 0.0 0.0 0.00 0.00 0.00 42 1015.9
20260509055753 54 159 0.0 0.0 0.00 0.00 0.00 42 1015.9
20260509055236 54 159 0.0 0.0 0.00 0.00 0.00 42 1015.9
20260509054734 54 159 0.0 0.0 0.00 0.00 0.00 41 1016.0
20260509054208 55 159 0.0 0.0 0.00 0.00 0.00 41 1016.2
20260509053639 55 159 0.0 0.0 0.00 0.00 0.00 41 1016.4
20260509053138 55 159 0.0 0.0 0.00 0.00 0.00 41 1016.3
20260509052618 55 159 0.0 0.0 0.00 0.00 0.00 41 1016.4
20260509052036 55 159 0.0 0.0 0.00 0.00 0.00 40 1016.3
20260509051535 56 159 0.0 0.0 0.00 0.00 0.00 40 1016.3
20260509051006 56 159 0.0 0.0 0.00 0.00 0.00 40 1016.4
20260509050734 56 159 0.0 0.0 0.00 0.00 0.00 39 1016.6
20260509045938 56 159 0.0 0.0 0.00 0.00 0.00 39 1016.7
20260509045437 56 159 0.0 0.0 0.00 0.00 0.00 39 1016.7
20260509045210 57 159 0.0 0.0 0.00 0.00 0.00 39 1016.8
20260509044642 57 159 0.0 0.0 0.00 0.00 0.00 39 1016.7
20260509043909 57 159 0.0 0.0 0.00 0.00 0.00 39 1016.8
20260509043341 57 159 0.0 0.0 0.00 0.00 0.00 38 1016.8
20260509042840 58 159 0.0 0.0 0.00 0.00 0.00 38 1016.8
20260509042319 58 159 0.0 0.0 0.00 0.00 0.00 37 1016.9
20260509041741 58 159 0.0 0.0 0.00 0.00 0.00 37 1016.9
20260509041442 58 159 0.0 0.0 0.00 0.00 0.00 36 1016.9
20260509040708 59 159 0.0 0.0 0.00 0.00 0.00 37 1016.8
20260509040205 59 159 0.0 0.0 0.00 0.00 0.00 36 1016.8
20260509035704 59 151 0.0 0.0 0.00 0.00 0.00 36 1016.8
20260509035136 59 151 0.0 0.0 0.00 0.00 0.00 36 1016.9
20260509034621 60 151 0.0 0.0 0.00 0.00 0.00 35 1016.9
20260509034120 60 151 0.0 0.0 0.00 0.00 0.00 35 1016.8
20260509033556 60 150 0.0 0.0 0.00 0.00 0.00 35 1016.9
20260509033045 60 150 0.0 0.0 0.00 0.00 0.00 35 1016.8